Location: Watson Lake
(60.1170°N, 128.8000°W)
Time: 01:52:48
(UTC-07:00)

Daily predictions for brighter satellites

Satellite Brightness Start Highest point End
(mag) Time Altitude Azimuth Time Altitude Azimuth Time Altitude Azimuth
Cosmos 405 Rocket 4.2 00:01:50 10° SW 00:05:29 36° WNW 00:09:14 10° N
Iridium 96 3.3 00:05:56 68° SSE 00:06:10 83° E 00:08:36 10° N
Cosmos 2219 Rocket 3.6 00:02:36 10° W 00:07:56 41° NNW 00:13:17 10° NE
Mayak 0.4 00:05:45 10° NE 00:08:58 21° E 00:10:12 18° ESE
Terra 3.0 00:06:03 14° SSW 00:09:35 35° W 00:13:59 10° NNW
Cosmos 2237 Rocket 3.0 00:04:23 10° WSW 00:09:55 53° NW 00:15:29 10° NE
SL-24 R/B 4.1 00:07:50 28° SSE 00:10:03 74° ENE 00:14:27 10° NNW
DELTA 2 DEB (DPAF) 4.3 00:08:20 27° SE 00:10:44 67° ENE 00:15:12 10° NNW
Cosmos 2056 Rocket 4.3 00:05:50 10° SW 00:11:10 56° NW 00:16:28 10° NNE
Cosmos 1461 3.6 00:07:07 10° WNW 00:11:46 48° SW 00:13:55 28° SSE
Cosmos 1452 Rocket 3.5 00:06:31 10° SSW 00:11:47 89° ESE 00:17:06 10° NNE
Meteor 1-26 Rocket 4.3 00:08:17 14° SSW 00:13:02 80° WNW 00:18:42 10° NNE
Cosmos 2322 Rocket 4.4 00:08:23 10° WNW 00:13:13 28° N 00:18:04 10° ENE
ATLAS 5 CENTAUR R/B 3.1 00:08:55 10° WNW 00:14:04 36° SW 00:17:13 22° S
Spot 4 4.1 00:13:08 24° S 00:15:55 60° WSW 00:20:41 10° NNW
Cosmos 2344 3.8 00:10:17 10° SSW 00:17:48 60° SE 00:26:56 10° ENE
Okean 2 Rocket 3.1 00:13:31 10° NNW 00:18:01 79° ENE 00:20:09 30° SSE
CZ-4C R/B 2.7 00:14:51 21° S 00:18:17 43° SE 00:24:17 10° ENE
Cosmos 1633 4.3 00:17:41 10° NNW 00:20:41 25° W 00:22:45 15° SW
Cosmos 1782 Rocket 3.7 00:16:27 10° NNW 00:20:55 70° W 00:23:13 28° S
USA 234 4.0 00:20:17 23° S 00:23:27 34° SW 00:29:21 10° WNW
Cosmos 1605 Rocket 4.1 00:18:47 18° SSW 00:23:41 87° WNW 00:30:10 10° NNE
Cosmos 909 Rocket 4.4 00:19:35 10° WNW 00:26:17 65° NNE 00:32:31 10° ESE
Meteor 1-4 Rocket 4.4 00:23:54 10° NW 00:26:39 22° W 00:28:29 15° SW
Lacrosse 5 3.3 00:23:06 10° W 00:26:56 22° SW 00:28:06 20° SSW
CZ-4C R/B 3.3 00:26:24 34° SSE 00:27:58 76° ENE 00:32:00 10° NNW
Cosmos 1354 Rocket 4.1 00:24:21 10° NNW 00:29:41 78° NE 00:32:47 25° SE
Meteor 1-10 Rocket 4.4 00:26:34 25° S 00:30:08 68° E 00:36:05 10° NNE
Cosmos 2242 Rocket 4.2 00:27:03 16° SW 00:30:28 53° WNW 00:34:51 10° N
SeaSat 1 2.4 00:28:35 27° SSE 00:31:17 79° SW 00:36:17 10° NW
Meteor 2-6 Rocket 4.4 00:29:06 25° S 00:32:36 70° E 00:38:32 10° NNE
ATLAS CENTAUR R/B 2.1 00:28:50 10° W 00:32:39 54° NNW 00:36:46 10° ENE
Okean 1-7 3.1 00:33:23 33° SSE 00:35:09 62° E 00:39:24 10° NNE
Lacrosse 4 Rocket 2.8 00:31:26 10° NW 00:35:34 39° NNE 00:39:46 10° E
GEOS 3 Rocket 3.6 00:32:13 10° ENE 00:37:40 77° SE 00:43:02 10° SW
Tsikada Rocket 4.2 00:33:51 10° N 00:40:02 65° ENE 00:43:53 24° SSE
Cosmos 1900 4.4 00:35:16 10° NW 00:40:07 58° SW 00:42:17 31° SSE
PEGASUS R/B 3.0 00:38:14 10° NNE 00:40:47 87° WNW 00:40:52 81° SW
Cosmos 2151 Rocket 3.6 00:36:33 10° NNW 00:41:07 77° ENE 00:43:11 32° SSE
Cosmos 1812 4.1 00:42:06 22° ESE 00:43:06 25° E 00:46:18 10° NNE
Cosmos 44 4.4 00:41:14 10° WNW 00:45:59 48° N 00:51:00 10° E
Cosmos 1459 Rocket 4.0 00:44:58 27° S 00:48:28 68° E 00:54:32 10° NNE
Cosmos 389 Rocket 4.0 00:46:59 10° NW 00:49:57 26° W 00:51:07 22° SW
CZ-4B R/B 4.1 00:47:58 10° E 00:50:06 15° NE 00:52:16 10° NNE
Cosmos 2221 Rocket 3.6 00:50:03 33° S 00:52:01 71° E 00:56:35 10° NNE
COBE Rocket 4.0 00:48:57 10° NNE 00:53:49 58° E 00:55:52 32° SSE
Cosmos 1703 Rocket 3.6 00:52:59 29° SSW 00:55:10 75° WNW 00:59:32 10° NNE
Cosmos 1174 4.3 00:54:30 37° SSE 00:55:16 41° SE 00:58:48 10° ENE
NOSS 2-1 (C) 4.4 00:52:18 10° W 00:56:37 60° N 01:02:21 10° E
Cosmos 1943 Rocket 3.5 00:52:04 10° NW 00:56:37 27° WSW 00:59:10 19° SW
NOSS 2-1 (D) 4.4 00:53:18 10° W 00:57:37 60° N 01:03:22 10° E
Cosmos 1975 3.9 00:54:00 10° N 00:57:52 38° ENE 00:59:53 23° ESE
SL-16 R/B 3.0 00:54:46 10° WSW 01:00:18 52° NW 01:05:53 10° NE
H-2A R/B 2.3 00:59:36 33° S 01:01:31 64° WSW 01:06:03 10° NNW
deb Chang Zheng 4 4.4 00:59:30 10° NNE 01:03:32 36° E 01:04:53 29° SE
Cosmos 1656 Rocket 4.2 00:59:18 10° NW 01:04:43 45° WSW 01:07:15 28° SSW
Cosmos 1782 3.7 01:04:20 21° SW 01:06:38 44° WNW 01:10:30 10° N
Cosmos 1867 3.7 01:02:09 10° WNW 01:07:40 76° NNE 01:13:10 10° ESE
Meteor 1-11 Rocket 4.3 01:02:30 10° NNW 01:07:57 48° W 01:10:56 25° SSW
Cosmos 1816 Rocket 4.5 01:02:22 10° NNW 01:08:37 85° ENE 01:12:12 27° SSE
Cosmos 1606 4.1 01:07:15 17° SW 01:09:45 36° WNW 01:13:25 10° N
Cosmos 1536 3.2 01:06:49 10° NNW 01:10:43 52° W 01:12:04 35° SSW
Meteor 2-12 Rocket 4.4 01:10:13 28° S 01:13:34 77° E 01:19:38 10° NNE
ALOS 2 3.1 01:13:04 31° SSW 01:14:47 49° W 01:19:05 10° NNW
Cosmos 44 Rocket 4.4 01:10:01 10° WNW 01:14:52 49° N 01:19:51 10° E
CZ-4 R/B 3.9 01:10:56 10° NNE 01:15:47 82° WNW 01:18:24 28° SSW
Cosmos 2346 Rocket 4.5 01:12:02 10° NNW 01:18:18 87° ENE 01:21:55 27° SSE
Cosmos 921 Rocket 3.8 01:15:17 16° SW 01:18:33 50° NW 01:22:44 10° NNE
Cosmos 968 Rocket 3.4 01:15:14 10° NNW 01:20:30 84° WSW 01:23:16 29° SSE
Cosmos 1331 Rocket 3.9 01:17:36 27° SSW 01:20:33 82° ESE 01:25:51 10° NNE
Cosmos 2061 Rocket 4.1 01:20:09 26° SSW 01:24:00 89° W 01:30:30 10° NNE
Cosmos 2100 Rocket 4.1 01:20:14 24° SSW 01:24:17 77° WNW 01:30:43 10° NNE
Cosmos 1802 Rocket 4.0 01:20:58 27° SSW 01:24:34 89° WNW 01:30:52 10° NNE
Cosmos 2360 Rocket 4.4 01:21:50 10° NW 01:26:40 28° N 01:31:29 10° ENE
Cosmos 1603 3.9 01:21:44 11° SW 01:27:04 70° NW 01:32:43 10° NE
Cosmos 2278 4.0 01:21:51 10° NW 01:27:31 67° NE 01:32:43 12° SE
USA 267 3.3 01:21:05 10° E 01:27:31 56° SSE 01:33:57 10° WSW
Meteor 1-27 Rocket 3.8 01:24:25 26° SSW 01:27:52 82° WNW 01:33:42 10° NNE
Cosmos 2369 Rocket 4.3 01:25:03 10° WNW 01:27:58 14° W 01:30:41 10° SW
Cosmos 1980 Rocket 3.2 01:25:07 10° NW 01:30:31 45° NNE 01:35:55 10° ESE
Cosmos 1943 3.2 01:26:36 21° SW 01:30:33 90° NW 01:36:18 10° NE
USA 32 4.2 01:25:24 10° N 01:30:42 70° ENE 01:33:29 28° SSE
Meteor 1-12 Rocket 4.4 01:26:02 10° NNW 01:31:43 71° ENE 01:35:10 25° SSE
Cosmos 1697 Rocket 3.2 01:27:30 10° NW 01:33:08 60° NE 01:38:45 10° ESE
Exosat Rocket 4.3 01:28:23 10° NW 01:33:34 60° NE 01:40:12 10° SE
COSMOS 2406 4.4 01:32:46 22° SE 01:34:56 28° ESE 01:39:42 10° NE
Cosmos 1271 Rocket 4.3 01:32:15 10° NW 01:35:31 26° W 01:36:46 22° WSW
Cosmos 2333 Rocket 4.3 01:34:40 10° WNW 01:39:35 29° N 01:44:30 10° NE
CZ-2C R/B 3.5 01:34:52 10° N 01:39:55 45° WNW 01:44:07 15° SW
Okean 1 Rocket 3.1 01:35:59 10° NNW 01:40:30 75° W 01:42:16 36° S
Cosmos 2233 Rocket 4.2 01:37:40 27° SSE 01:41:01 59° E 01:47:03 10° NNE
SL-16 R/B 3.9 01:37:53 10° NW 01:43:05 35° NNE 01:48:16 10° E
SL-16 R/B 3.8 01:38:47 10° ESE 01:44:30 39° NE 01:50:14 10° NNW
Cosmos 1300 Rocket 4.1 01:40:22 10° NNW 01:44:39 47° W 01:46:17 32° SSW
Mayak -1.2 01:40:52 10° NNE 01:45:04 76° WNW 01:46:50 34° SSW
Cosmos 1110 Rocket 4.3 01:43:34 20° SW 01:47:17 68° NW 01:52:39 10° NNE
Cosmos 1500 3.8 01:45:39 10° NNW 01:49:14 43° W 01:50:10 35° SW
ADEOS Rocket 3.3 01:44:42 10° NNE 01:51:59 76° ESE 01:55:53 27° S
Cosmos 2219 Rocket 4.4 01:48:28 10° WNW 01:53:17 28° N 01:58:06 10° NE
Cosmos 2237 Rocket 4.2 01:50:13 10° WNW 01:55:09 30° NNW 02:00:06 10° NE
ATLAS 5 CENTAUR R/B 4.4 01:55:59 10° W 01:57:31 11° WSW 01:58:45 10° WSW
Cosmos 2322 Rocket 3.8 01:53:29 10° NW 01:58:46 37° NNE 02:03:59 10° E
Cosmos 1656 3.7 01:53:20 10° NW 01:59:06 87° SW 02:03:25 18° SE
Resurs 1-4 Rocket 4.5 01:57:26 10° NE 01:59:49 13° E 02:02:10 10° ESE
CZ-4C R/B 2.8 01:59:04 47° SSE 01:59:53 81° ENE 02:03:09 10° NNW
Cosmos 1455 Rocket 3.4 01:58:47 10° N 02:03:08 60° ENE 02:05:32 25° SE
Cosmos 1725 Rocket 4.0 01:59:53 27° SSW 02:03:30 78° WNW 02:09:44 10° NNE
Landsat 5 3.8 02:02:11 25° SSE 02:04:45 71° ENE 02:09:16 10° NNW
CZ-4B R/B 3.6 02:00:19 10° NNE 02:05:02 65° WNW 02:07:35 27° SW
CZ-4C R/B 2.5 02:00:42 10° WSW 02:06:28 84° NNW 02:13:19 10° ENE
SJ 16-02 4.4 02:03:56 10° NNW 02:06:51 17° NNE 02:09:46 10° ENE
Cosmos 1666 2.6 02:03:44 10° NNW 02:07:31 71° W 02:08:39 42° S
Cosmos 1975 Rocket 3.8 02:06:05 27° SSE 02:08:05 44° E 02:12:18 10° NNE
SeaSat 1 3.9 02:08:21 20° SW 02:09:32 21° WSW 02:13:18 10° WNW
JB-3 4.3 02:06:23 10° NNE 02:10:27 88° WNW 02:12:01 37° SSW
Iridium 2 3.6 02:10:11 41° SSW 02:11:23 77° W 02:15:13 10° N
ATLAS CENTAUR R/B 2.5 02:08:18 10° WNW 02:12:11 45° N 02:16:21 10° E
Cosmos 1184 Rocket 2.9 02:13:09 48° SSE 02:13:53 66° ESE 02:17:14 10° NNE
Lacrosse 4 Rocket 1.4 02:10:14 10° NW 02:14:38 79° SW 02:17:39 20° SE
GEOS 3 Rocket 4.3 02:10:20 10° ENE 02:15:41 60° NNW 02:20:57 10° W
PSLV R/B 4.3 02:11:43 10° NNE 02:15:54 43° E 02:17:48 27° SSE
Cosmos 2016 Rocket 4.4 02:12:36 22° SW 02:16:34 55° WNW 02:22:35 10° N
Iridium 13 4.4 02:17:42 44° SSE 02:18:35 69° E 02:21:56 10° N
Cosmos 1812 3.2 02:17:13 31° SW 02:18:43 51° WNW 02:22:31 10° N
Cosmos 2369 3.7 02:13:51 10° NW 02:19:30 68° WSW 02:23:11 22° SSE
SL-08 R/B 4.3 02:16:49 10° SE 02:21:26 46° ENE 02:26:08 10° N
Cosmos 1743 3.0 02:17:37 10° NNW 02:21:28 56° W 02:22:42 38° SSW
CZ-4B R/B 1.5 02:20:48 36° SSE 02:22:07 80° ENE 02:25:42 10° NNW
Okean 3 3.6 02:21:37 32° SW 02:23:28 66° WNW 02:27:48 10° N
Cosmos 1898 Rocket 4.4 02:18:50 10° NNW 02:23:54 48° NE 02:28:58 10° ESE
Cosmos 1544 Rocket 3.5 02:21:17 10° NNW 02:25:40 88° ENE 02:27:48 30° SSE
Cosmos 909 Rocket 4.1 02:20:17 10° NW 02:26:33 56° SW 02:31:19 17° SSE
Cosmos 1689 Rocket 2.2 02:25:59 42° SSE 02:26:55 76° ENE 02:30:04 10° NNW
Cosmos 44 3.6 02:22:45 10° WNW 02:27:46 74° NNE 02:33:03 10° ESE
Cosmos 1242 Rocket 2.4 02:24:13 10° NNW 02:27:51 83° WSW 02:29:09 38° S
Cosmos 1674 Rocket 3.9 02:27:40 29° SW 02:29:43 55° WNW 02:34:05 10° N
Okean 1 3.3 02:29:44 36° SSW 02:31:18 83° WNW 02:35:22 10° NNE
Cosmos 2344 4.1 02:24:07 10° WSW 02:32:11 78° NNW 02:42:40 10° ENE
Cosmos 1992 Rocket 4.0 02:31:12 29° SSW 02:33:58 75° ESE 02:39:13 10° NE
Cosmos 1975 3.7 02:30:35 10° NNW 02:34:23 37° W 02:35:40 29° SW
Meteor 2-9 Rocket 4.1 02:30:04 10° NNW 02:35:41 76° WSW 02:38:57 25° S
Cosmos 1174 4.2 02:34:34 14° WSW 02:38:01 57° NNW 02:41:27 10° NE
H-2A R/B 4.3 02:36:42 12° WSW 02:38:26 14° W 02:40:47 10° NW
Cosmos 1302 Rocket 4.5 02:35:27 19° WSW 02:39:09 55° NW 02:44:19 10° NNE
deb Chang Zheng 4 4.3 02:35:39 10° N 02:39:46 45° WNW 02:42:08 23° WSW
Cosmos 2360 4.2 02:35:37 10° NW 02:41:23 86° NE 02:47:05 10° SE
SL-16 R/B 4.1 02:40:40 10° WNW 02:45:36 29° NNW 02:50:34 10° NE
NOSS 2-1 (C) 4.2 02:42:47 10° WNW 02:47:38 84° NNE 02:54:19 10° ESE
NOSS 2-1 (D) 4.2 02:43:47 10° WNW 02:48:38 85° NNE 02:55:19 10° ESE
Cosmos 1378 Rocket 3.9 02:47:22 27° SW 02:49:33 56° WNW 02:53:55 10° N
Cosmos 1777 Rocket 4.3 02:45:18 10° NW 02:50:21 47° WSW 02:53:00 26° S
Cosmos 1867 3.9 02:45:56 10° WNW 02:51:06 43° SW 02:54:25 21° S
MOS 1 Rocket 3.3 02:48:37 10° NNE 02:53:10 74° ESE 02:55:53 26° S
Cosmos 44 Rocket 3.5 02:51:51 10° WNW 02:56:55 79° NNE 03:02:06 10° ESE
Cosmos 2034 Rocket 4.2 02:55:26 20° S 02:59:51 71° E 03:06:04 10° NNE
Cosmos 1092 Rocket 4.0 02:54:53 10° NNW 03:01:09 83° ENE 03:06:47 13° SSE
Spot 2 4.5 02:57:31 10° NNE 03:02:09 67° ESE 03:05:07 23° S
CZ-2D R/B 3.5 03:00:18 10° NNE 03:05:11 33° E 03:09:59 10° SSE
Meteor 2-4 Rocket 3.7 03:03:46 22° S 03:07:18 72° ESE 03:12:39 10° NNE
SL-27 R/B 3.1 03:07:04 27° SSE 03:08:22 41° ESE 03:11:33 10° NE
USA 267 3.2 03:04:32 10° E 03:11:05 70° S 03:17:38 10° W
Cosmos 2278 4.2 03:06:15 10° NW 03:11:29 39° WSW 03:14:34 22° SSW
Cosmos 2360 Rocket 3.5 03:06:35 10° NW 03:11:59 44° NNE 03:17:22 10° ESE
Cosmos 1980 Rocket 2.1 03:09:17 10° NW 03:14:51 67° WSW 03:20:26 10° SSE
Cosmos 1943 4.5 03:09:57 10° W 03:15:15 38° NNW 03:20:35 10° NE
Cosmos 1697 Rocket 3.0 03:11:41 10° NW 03:17:05 46° WSW 03:21:08 17° S
COSMOS 2406 3.2 03:14:48 21° SW 03:18:42 88° NW 03:24:29 10° NE
NOSS 2-1 (E) 4.2 03:14:09 10° WNW 03:19:15 83° SSW 03:26:16 10° SE
Mayak 1.0 03:17:16 10° N 03:20:08 18° NW 03:23:00 10° W
H-2A R/B 3.4 03:16:54 10° NNE 03:20:54 42° E 03:24:09 15° SSE
Cosmos 2333 Rocket 4.1 03:20:19 10° NW 03:25:23 32° NNE 03:30:28 10° E
Cosmos 1544 3.6 03:23:06 10° N 03:26:45 58° ENE 03:30:22 10° SSE
Cosmos 1464 Rocket 4.1 03:23:02 20° SSW 03:27:27 70° WNW 03:33:48 10° NNE
SL-16 R/B 2.5 03:21:58 12° S 03:27:52 72° WSW 03:34:11 10° NNW
SL-16 R/B 2.4 03:22:17 10° NW 03:28:00 77° NE 03:33:42 10° SE
Cosmos 2058 Rocket 4.3 03:23:56 10° N 03:28:10 43° ENE 03:32:24 10° SE
Geosat 4.3 03:24:18 10° NE 03:29:18 66° NW 03:33:11 17° WSW
COSMOS 2428 4.4 03:25:44 10° NW 03:31:04 37° NNE 03:36:22 10° E
Cosmos 2228 4.0 03:27:35 10° N 03:31:46 46° ENE 03:35:54 10° SE
Cosmos 2082 Rocket 3.0 03:30:21 16° S 03:34:33 43° ESE 03:39:53 10° NE
Exosat Rocket 4.5 03:29:55 10° NW 03:34:59 40° WSW 03:40:48 13° S
Cosmos 1606 Rocket 3.8 03:30:43 10° N 03:35:03 69° ENE 03:39:22 10° SSE
NOSS 3-3 (A) 4.4 03:28:22 10° WNW 03:35:24 89° SSW 03:43:14 10° ESE
NOSS 3-3 (C) 4.4 03:28:28 10° WNW 03:35:29 90° SSW 03:43:20 10° ESE
ADEOS Rocket 4.3 03:30:25 10° NNE 03:37:04 40° NW 03:42:51 11° WSW
Nadezhda 4 Rocket 4.3 03:32:45 10° NNW 03:38:38 49° W 03:43:06 17° SSW
Cosmos 2219 Rocket 4.0 03:33:36 10° NW 03:38:45 35° NNE 03:43:52 10° E
Cosmos 1455 Rocket 4.3 03:37:05 10° NNW 03:40:43 26° W 03:42:39 19° SW
Cosmos 2237 Rocket 4.3 03:35:49 10° NW 03:40:48 30° NNE 03:45:47 10° ENE
Resurs 1-4 Rocket 2.7 03:35:44 10° NNE 03:40:54 53° E 03:45:43 12° S
Cosmos 1340 Rocket 2.9 03:40:10 20° S 03:42:51 75° ESE 03:46:50 10° NNE
Cosmos 2322 Rocket 2.2 03:37:46 10° NW 03:43:30 86° NE 03:49:10 10° SE
MOZ.5/SAFIR/RUBIN 5/SL-8 3.8 03:38:51 10° SSE 03:43:36 80° WSW 03:48:26 10° NNW
Cosmos 1975 Rocket 4.0 03:43:14 18° WSW 03:46:04 36° WNW 03:50:12 10° N
SJ 16-02 2.7 03:42:20 10° NNW 03:46:35 43° NE 03:50:49 10° ESE
ATLAS CENTAUR R/B 1.6 03:47:25 10° WNW 03:51:34 80° NNE 03:56:02 10° ESE
IRS-P3 4.3 03:46:14 10° NNE 03:51:38 75° ESE 03:56:16 14° SSW
PSLV R/B 4.5 03:48:35 10° N 03:52:38 38° WNW 03:55:35 16° WSW
Lacrosse 4 Rocket 2.9 03:49:34 10° WNW 03:52:48 20° WSW 03:53:55 18° SW
NPP 3.7 03:47:30 10° NNE 03:52:58 81° ESE 03:57:35 14° SSW
Cosmos 1356 3.7 03:51:39 17° S 03:54:11 65° ESE 03:57:39 10° NNE
CZ-4B R/B 3.4 03:54:14 14° WSW 03:55:10 16° W 03:57:22 10° NW
CZ-4C R/B 3.0 03:49:26 10° W 03:55:31 66° N 04:02:42 10° E
COSMOS 2487 4.1 03:52:42 11° SSE 03:55:36 28° ESE 03:58:40 10° NE
CBERS-1 4.1 03:51:39 10° NNE 03:56:49 81° ESE 04:01:15 14° SSW
Cosmos 1689 Rocket 4.3 03:58:34 13° W 03:59:06 13° W 04:00:45 10° NW
SL-08 R/B 3.9 03:55:45 16° SSW 03:59:21 42° W 04:04:04 10° NNW
Cosmos 1634 Rocket 4.1 03:54:14 11° S 04:00:11 80° E 04:06:31 10° NNE
Cosmos 1025 Rocket 3.1 03:56:43 14° S 04:00:20 75° ESE 04:04:39 10° NNE
Cosmos 1805 3.6 03:59:31 10° N 04:03:25 66° ENE 04:07:18 10° SSE
UNK 4.3 04:00:49 16° SSW 04:04:10 40° W 04:08:32 10° NNW
Cosmos 1953 4.0 04:00:45 10° N 04:04:35 37° ENE 04:08:23 10° SE
Cosmos 1898 Rocket 3.7 04:01:05 10° NW 04:06:05 48° WSW 04:11:05 10° S
Cosmos 44 3.7 04:04:06 10° WNW 04:08:55 44° SW 04:13:57 10° SSE
Cosmos 1833 Rocket 2.9 04:04:59 15° SSW 04:09:44 70° ESE 04:15:23 10° NE
Cosmos 1766 3.2 04:06:55 10° NNW 04:10:49 81° W 04:14:42 10° S
SAR-Lupe-2 3.9 04:08:21 13° S 04:11:18 46° WSW 04:14:47 10° NNW
AQUA 3.8 04:06:41 10° NNE 04:11:30 87° WNW 04:15:48 13° SSW
Cosmos 2026 Rocket 4.2 04:05:24 10° NNW 04:11:40 59° W 04:17:54 10° S
Cosmos 2279 Rocket 4.4 04:07:10 10° S 04:13:23 66° E 04:19:36 10° NNE
Aureole 2 Rocket 3.4 04:11:00 10° NNW 04:14:56 57° NE 04:18:41 10° SE
Cosmos 1937 Rocket 3.6 04:11:08 10° NW 04:16:13 52° WSW 04:21:14 10° S
Cosmos 2084 Rocket 3.4 04:12:53 15° SW 04:16:22 74° SSE 04:20:28 10° ENE
Cosmos 1515 4.3 04:14:58 16° SW 04:17:45 44° WNW 04:21:29 10° N
Cosmos 1536 Rocket 4.1 04:14:51 15° SW 04:18:10 45° WNW 04:22:23 10° N
Cosmos 1125 Rocket 3.9 04:13:35 10° NNW 04:18:56 70° NE 04:24:15 10° SE
Iridium 4 Rocket 3.4 04:20:22 13° SSW 04:24:10 56° WNW 04:28:51 10° N
Lacrosse 5 rocket 2.6 04:22:44 13° SSW 04:25:47 28° SSE 04:29:16 10° E
Cosmos 2322 4.1 04:20:12 10° NW 04:25:57 73° NE 04:31:42 10° SE
Cosmos 1570 Rocket 4.4 04:21:01 10° SSW 04:26:13 64° ESE 04:31:31 10° NE
Cosmos 1356 Rocket 3.6 04:23:28 10° S 04:27:29 72° ESE 04:31:36 10° NNE
ARIANE 5 R/B 2.7 04:23:13 10° NNE 04:28:31 76° ESE 04:33:45 10° SSW
Spot 4 Rocket 4.2 04:24:25 10° NNE 04:29:39 79° ESE 04:34:49 10° SSW
Cosmos 1758 3.6 04:27:02 10° NNW 04:31:03 72° ENE 04:35:01 10° SSE
Cosmos 990 Rocket 4.4 04:26:17 10° NW 04:31:08 43° WSW 04:35:59 10° S
SL-16 R/B 4.2 04:26:19 10° NW 04:31:18 30° NNE 04:36:18 10° ENE
APEX 4.4 04:26:38 12° SSW 04:32:47 75° SE 04:37:59 10° NE
Helios 1A Rocket 3.4 04:30:43 10° NNE 04:34:52 64° ESE 04:39:01 10° S
Okean 2 3.8 04:31:54 13° SW 04:35:29 51° WNW 04:39:32 10° N
CZ-2D R/B 4.0 04:32:50 10° NNE 04:36:50 55° ESE 04:40:53 10° S
Cosmos 332 Rocket 4.0 04:33:51 12° SW 04:38:15 62° NW 04:43:03 10° NNE
Cosmos 44 Rocket 3.9 04:33:34 10° WNW 04:38:16 38° SW 04:43:02 10° SSE
Cosmos 371 Rocket 3.5 04:34:29 12° SW 04:38:59 65° NW 04:43:50 10° NNE
Cosmos 1607 4.2 04:32:57 11° SW 04:39:06 76° SE 04:45:37 10° ENE
Cosmos 1733 3.5 04:35:37 10° NNW 04:39:30 73° ENE 04:43:22 10° SSE
Cosmos 372 Rocket 4.0 04:37:18 10° NNW 04:42:36 86° WSW 04:47:49 10° SSE
SL-27 R/B 3.6 04:40:41 10° WSW 04:43:39 30° NW 04:46:41 10° NNE
Cosmos 1726 Rocket 4.0 04:40:27 10° NNW 04:44:31 40° W 04:48:34 10° SSW
Cosmos 2150 Rocket 4.4 04:40:16 10° NW 04:45:28 45° WSW 04:50:39 10° S
CZ-2D R/B 2.3 04:40:16 10° NNE 04:45:41 66° WNW 04:50:59 10° SW
Cosmos 2266 Rocket 3.9 04:41:03 10° NNW 04:47:07 79° W 04:53:13 10° S
Cosmos 2344 4.4 04:38:52 10° WNW 04:47:34 80° NNE 04:59:27 10° ESE
Cosmos 1066 Rocket 4.2 04:42:46 10° SSW 04:48:15 74° WNW 04:53:40 10° NNE
Cosmos 1655 Rocket 4.3 04:42:48 10° NNW 04:48:53 50° W 04:55:00 10° SSW
USA 267 3.4 04:48:11 10° ESE 04:54:38 58° SSW 05:01:05 10° W
IRS-1D 3.7 04:50:05 10° NNE 04:55:10 63° WNW 05:00:19 10° SW
Cosmos 2360 Rocket 2.2 04:50:45 10° NW 04:56:22 71° WSW 05:01:58 10° SSE
H-2A R/B 3.3 04:52:34 10° N 04:56:27 38° WNW 05:00:26 10° SW
Cosmos 1980 Rocket 3.6 04:54:13 10° WNW 04:57:56 18° W 05:01:40 10° SW
UNKNOWN OBJECT B 2.8 04:55:35 10° NNE 04:59:32 85° ESE 05:03:22 10° SSW
Cosmos 1812 Rocket 3.7 04:57:10 10° NNW 05:01:41 88° ENE 05:06:10 10° SSE
IRS-1C 4.5 04:56:30 10° NNE 05:01:43 53° WNW 05:06:54 10° SW
COSMOS 2406 4.3 04:58:24 10° W 05:03:42 38° NNW 05:09:03 10° NE
ADEOS II 2.6 05:00:16 10° NNE 05:05:32 64° ESE 05:10:45 10° S
Cosmos 1470 2.8 05:01:55 10° NNW 05:05:57 83° WSW 05:09:57 10° S
Cosmos 2058 Rocket 3.7 05:02:05 10° NNW 05:06:09 36° W 05:10:13 10° SSW
Meteor 1-21 4.4 05:00:44 10° S 05:06:23 79° ESE 05:12:00 10° NNE
Okean 1-7 Rocket 4.0 05:02:02 10° SSW 05:06:27 52° WNW 05:10:55 10° N
ADEOS 3.7 05:02:17 10° NNE 05:07:33 89° ESE 05:12:48 10° SSW
Cosmos 2228 3.8 05:05:24 10° NNW 05:09:14 32° W 05:13:01 10° SSW
Cosmos 2333 Rocket 2.8 05:04:58 10° NW 05:10:38 65° NE 05:16:17 10° SE
SL-16 R/B 2.9 05:06:44 10° NW 05:11:45 33° WSW 05:16:45 10° S
SL-16 R/B 3.9 05:08:04 10° SW 05:12:37 21° W 05:17:12 10° NW
